Weather History for Corinth, MS

Change the Weather History Date:

Sunday, March 30, 2014

  Actual Average Record
Temperature  
Mean Temperature 48 °F -  
Max Temperature 64 °F 70 °F 86 °F (1963)
Min Temperature 33 °F 45 °F 21 °F (1964)
Degree Days  
Heating Degree Days 16    
Moisture  
Dew Point 34 °F    
Average Humidity 64    
Maximum Humidity 93    
Minimum Humidity 24    
Precipitation  
Precipitation 0.00 in - - ()
Sea Level Pressure  
Sea Level Pressure 30.22 in    
Wind  
Wind Speed 5 mph (NNW)    
Max Wind Speed 9 mph    
Max Gust Speed -    
Visibility 8 miles    
Events      
Averages and records for this station are not official NWS values.
T = Trace of Precipitation, MM = Missing Value Source: NWS Daily Summary

Daily Weather History Graph

Daily Weather History Graph

Search for Another Location

Airport:

Trip Planner

Search our weather history database for the weather conditions in past years. The results will help you decide how hot, cold, wet, or windy it might be!

Date:

Astronomy

Mar. 30, 2014 Rise Set
Actual Time 6:44 AM CDT 7:14 PM CDT
Civil Twilight 6:18 AM CDT 7:39 PM CDT
Nautical Twilight 5:48 AM CDT 8:09 PM CDT
Astronomical Twilight 5:18 AM CDT 8:39 PM CDT
Moon 6:29 AM CDT (3/30) 7:25 PM CDT (3/30)
Length of Visible Light 13h 20m
Length of Day
12h 30m
Waning Crescent, 0% of the Moon is Illuminated
Mar 30
Waning Crescent
Mar 30
New
Apr 7
First Quarter
Apr 15
Full
Apr 22
Last Quarter

Hourly Weather History & Observations

Time (CDT) Temp. Windchill Dew Point Humidity Pressure Visibility Wind Dir Wind Speed Gust Speed Precip Events Conditions
12:10 AM 41.0 °F 35.2 °F 35.6 °F 81% 30.21 in 8.0 mi NE 9.2 mph - N/A   Clear
12:30 AM 41.0 °F 35.8 °F 35.6 °F 81% 30.22 in 8.0 mi NNE 8.1 mph - N/A   Partly Cloudy
12:50 AM 41.0 °F 38.0 °F 35.6 °F 81% 30.23 in 8.0 mi North 4.6 mph - N/A   Partly Cloudy
1:10 AM 41.0 °F 39.0 °F 35.6 °F 81% 30.23 in 8.0 mi NNW 3.5 mph - N/A   Partly Cloudy
1:30 AM 39.2 °F 37.0 °F 35.6 °F 87% 30.24 in 8.0 mi NW 3.5 mph - N/A   Mostly Cloudy
1:50 AM 39.2 °F 35.9 °F 35.6 °F 87% 30.24 in 7.0 mi NW 4.6 mph - N/A   Overcast
2:10 AM 39.2 °F 35.9 °F 35.6 °F 87% 30.25 in 6.0 mi WNW 4.6 mph - N/A   Overcast
2:30 AM 39.2 °F 37.0 °F 35.6 °F 87% 30.25 in 6.0 mi NW 3.5 mph - N/A   Overcast
2:50 AM 37.4 °F 33.8 °F 35.6 °F 93% 30.25 in 5.0 mi WNW 4.6 mph - N/A   Overcast
3:10 AM 37.4 °F 34.9 °F 33.8 °F 87% 30.25 in 5.0 mi WNW 3.5 mph - N/A   Overcast
3:30 AM 37.4 °F 34.9 °F 33.8 °F 87% 30.25 in 5.0 mi NW 3.5 mph - N/A   Scattered Clouds
3:50 AM 37.4 °F 33.8 °F 33.8 °F 87% 30.25 in 5.0 mi NW 4.6 mph - N/A   Clear
4:10 AM 35.6 °F 32.8 °F 33.8 °F 93% 30.25 in 4.0 mi NNW 3.5 mph - N/A   Clear
4:30 AM 35.6 °F 30.7 °F 32.0 °F 87% 30.25 in 4.0 mi NW 5.8 mph - N/A   Clear
4:50 AM 35.6 °F 32.8 °F 32.0 °F 87% 30.25 in 4.0 mi NNW 3.5 mph - N/A   Clear
5:10 AM 35.6 °F 31.7 °F 32.0 °F 87% 30.25 in 3.0 mi WNW 4.6 mph - N/A   Clear
5:30 AM 33.8 °F 29.6 °F 32.0 °F 93% 30.26 in 3.0 mi NW 4.6 mph - N/A   Clear
5:50 AM 33.8 °F 29.6 °F 32.0 °F 93% 30.27 in 3.0 mi NW 4.6 mph - N/A   Clear
6:10 AM 33.8 °F 30.8 °F 32.0 °F 93% 30.27 in 4.0 mi NNW 3.5 mph - N/A   Clear
6:30 AM 33.8 °F 30.8 °F 32.0 °F 93% 30.26 in 3.0 mi NW 3.5 mph - N/A   Clear
6:50 AM 33.8 °F 30.8 °F 32.0 °F 93% 30.27 in 3.0 mi NW 3.5 mph - N/A   Clear
7:10 AM 33.8 °F 29.6 °F 32.0 °F 93% 30.28 in 2.0 mi West 4.6 mph - N/A   Clear
7:30 AM 33.8 °F 29.6 °F 32.0 °F 93% 30.28 in 2.0 mi West 4.6 mph - N/A   Clear
7:50 AM 35.6 °F - 33.8 °F 93% 30.29 in 2.5 mi Calm Calm - N/A   Clear
8:10 AM 37.4 °F 34.9 °F 33.8 °F 87% 30.29 in 3.0 mi NNW 3.5 mph - N/A   Clear
8:30 AM 41.0 °F 36.4 °F 35.6 °F 81% 30.29 in 4.0 mi North 6.9 mph - N/A   Haze
8:50 AM 41.0 °F 37.1 °F 35.6 °F 81% 30.29 in 5.0 mi North 5.8 mph - N/A   Haze
9:10 AM 44.6 °F 41.4 °F 35.6 °F 71% 30.29 in 5.0 mi NNE 5.8 mph - N/A   Haze
9:30 AM 44.6 °F 40.2 °F 35.6 °F 71% 30.29 in 7.0 mi NE 8.1 mph - N/A   Clear
9:50 AM 46.4 °F 42.9 °F 35.6 °F 66% 30.30 in 8.0 mi NNE 6.9 mph - N/A   Clear
10:10 AM 46.4 °F 42.9 °F 35.6 °F 66% 30.29 in 8.0 mi NNE 6.9 mph - N/A   Clear
10:30 AM 48.2 °F - 35.6 °F 62% 30.30 in 9.0 mi North 5.8 mph - N/A   Clear
10:50 AM 50.0 °F - 35.6 °F 58% 30.29 in 10.0 mi NE 3.5 mph - N/A   Clear
11:10 AM 50.0 °F - 35.6 °F 58% 30.28 in 10.0 mi Calm Calm - N/A   Clear
11:30 AM 53.6 °F - 35.6 °F 51% 30.27 in 10.0 mi ESE 4.6 mph - N/A   Clear
11:50 AM 55.4 °F - 33.8 °F 44% 30.27 in 10.0 mi NNE 3.5 mph - N/A   Clear
12:10 PM 55.4 °F - 32.0 °F 41% 30.26 in 10.0 mi NNW 4.6 mph - N/A   Clear
12:30 PM 57.2 °F - 35.6 °F 44% 30.27 in 10.0 mi NW 4.6 mph - N/A   Clear
12:50 PM 57.2 °F - 33.8 °F 41% 30.26 in 10.0 mi NNW 8.1 mph - N/A   Clear
1:10 PM 57.2 °F - 32.0 °F 38% 30.26 in 10.0 mi WNW 3.5 mph - N/A   Clear
1:30 PM 59.0 °F - 32.0 °F 36% 30.25 in 10.0 mi North 3.5 mph - N/A   Clear
1:50 PM 60.8 °F - 32.0 °F 34% 30.24 in 10.0 mi NE 5.8 mph - N/A   Clear
2:10 PM 62.6 °F - 32.0 °F 32% 30.22 in 10.0 mi NE 4.6 mph - N/A   Clear
2:30 PM 62.6 °F - 32.0 °F 32% 30.20 in 10.0 mi WNW 8.1 mph - N/A   Clear
2:50 PM 62.6 °F - 32.0 °F 32% 30.19 in 10.0 mi North 4.6 mph - N/A   Clear
3:10 PM 62.6 °F - 32.0 °F 32% 30.18 in 10.0 mi Calm Calm - N/A   Clear
3:30 PM 62.6 °F - 32.0 °F 32% 30.18 in 10.0 mi North 4.6 mph - N/A   Clear
3:50 PM 64.4 °F - 32.0 °F 30% 30.18 in 10.0 mi NW 3.5 mph - N/A   Clear
4:10 PM 64.4 °F - 30.2 °F 28% 30.17 in 10.0 mi West 4.6 mph - N/A   Clear
4:30 PM 64.4 °F - 26.6 °F 24% 30.17 in 10.0 mi Calm Calm - N/A   Clear
4:50 PM 64.4 °F - 28.4 °F 26% 30.16 in 10.0 mi Calm Calm - N/A   Clear
5:10 PM 64.4 °F - 28.4 °F 26% 30.15 in 10.0 mi NW 3.5 mph - N/A   Clear
5:30 PM 64.4 °F - 30.2 °F 28% 30.15 in 10.0 mi Calm Calm - N/A   Clear
5:50 PM 64.4 °F - 30.2 °F 28% 30.14 in 10.0 mi WNW 3.5 mph - N/A   Clear
6:10 PM 64.4 °F - 32.0 °F 30% 30.14 in 10.0 mi Calm Calm - N/A   Clear
6:30 PM 64.4 °F - 32.0 °F 30% 30.14 in 10.0 mi West 3.5 mph - N/A   Clear
6:50 PM 62.6 °F - 32.0 °F 32% 30.14 in 10.0 mi West 4.6 mph - N/A   Clear
7:10 PM 59.0 °F - 35.6 °F 42% 30.14 in 10.0 mi West 4.6 mph - N/A   Clear
7:30 PM 59.0 °F - 32.0 °F 36% 30.15 in 10.0 mi West 3.5 mph - N/A   Clear
7:50 PM 53.6 °F - 37.4 °F 54% 30.15 in 10.0 mi Calm Calm - N/A   Clear
8:10 PM 51.8 °F - 35.6 °F 54% 30.15 in 9.0 mi Calm Calm - N/A   Clear
8:30 PM 50.0 °F - 37.4 °F 62% 30.15 in 10.0 mi Calm Calm - N/A   Clear
8:50 PM 50.0 °F - 37.4 °F 62% 30.15 in 10.0 mi Calm Calm - N/A   Clear
9:10 PM 48.2 °F - 37.4 °F 66% 30.16 in 10.0 mi SSE 4.6 mph - N/A   Clear
9:30 PM 46.4 °F - 39.2 °F 76% 30.15 in 10.0 mi Calm Calm - N/A   Clear
9:50 PM 44.6 °F 43.1 °F 39.2 °F 81% 30.15 in 10.0 mi West 3.5 mph - N/A   Clear
10:10 PM 44.6 °F - 39.2 °F 81% 30.15 in 10.0 mi Calm Calm - N/A   Clear
10:30 PM 44.6 °F 43.1 °F 37.4 °F 76% 30.14 in 10.0 mi SE 3.5 mph - N/A   Clear
10:50 PM 44.6 °F - 37.4 °F 76% 30.14 in 10.0 mi Calm Calm - N/A   Clear
11:10 PM 41.0 °F - 37.4 °F 87% 30.14 in 10.0 mi Calm Calm - N/A   Clear
11:30 PM 41.0 °F - 37.4 °F 87% 30.14 in 10.0 mi Calm Calm - N/A   Clear
11:50 PM 41.0 °F - 35.6 °F 81% 30.14 in 10.0 mi Calm Calm - N/A   Clear